Погода в Севане

Армения     40°32′55″N   44°57′26″E
темп.,
°C
ветер,
м/с
пор.,
м/с
влажн.,
%
обл.,
%
осадки,
мм/ч
давл.,
гПа
погр.,
м
20 января, ср
ср2001:00−10с1197100 0.7 102165
04:00−11с1196100 1.4 102082
07:00−11с2296100 0.9 1020131
10:00−11с2295100 1.2 1020130
13:00−9с3391100 0.3 1019319
16:00−9с3390100 1.0 1017367
19:00−11с239492 0.3 1022126
22:00−12ссз229796 0.4 102287
21 января, чт
чт2101:00−14з0192100 0.0 102449
04:00−15з2285100 0.0 102576
07:00−17зюз237467 0.0 102939
10:00−15зюз227433 0.0 103159
13:00−10з23630 0.0 1032426
16:00−10з35747 0.0 1031489
19:00−15зюз237328 0.0 103641
22:00−16юз227114 0.0 103833
22 января, пт
пт2201:00−16зюз23710 0.0 104034
04:00−17зюз33720 0.0 104035
07:00−17зюз33710 0.0 104032
10:00−14зюз33730 0.0 104074
13:00−10зюз34710 0.0 1037205
16:00−9зюз34750 0.0 1035116
19:00−14зюз33600 0.0 103732
22:00−14зюз33480 0.0 103831
23 января, сб
сб2301:00−14зюз334527 0.0 103731
04:00−14зюз334562 0.0 103634
07:00−14зюз3344100 0.0 103535
10:00−12зюз3352100 0.0 103551
13:00−7з346484 0.0 1033146
16:00−7з346944 0.0 1031108
19:00−12зюз34510 0.0 103236
22:00−12зюз34500 0.0 103237
24 января, вс
вс2401:00−12зюз34520 0.0 103238
04:00−12зюз34532 0.0 103139
07:00−12зюз44570 0.0 103145
10:00−9зюз44630 0.0 103177
13:00−5зюз46640 0.0 1028200
16:00−5зюз45690 0.0 1027135
19:00−9зюз44580 0.0 102849
22:00−10зюз44570 0.0 102947